Location: Unspecified
(48.7670°N, 0.0000°E)
Time: 12:49:56
(UTC+00:00)

Tiros 1 - Visible Passes

Search period start: 25 June 2019 00:00
Search period end: 05 July 2019 00:00
Orbit: 631 x 664 km, 48.4° (Epoch: 24 June)

Date Brightness Start Highest point End Pass type
(mag) Time Alt. Az. Time Alt. Az. Time Alt. Az.
25 Jun 7.0 00:42:48 10° W 00:47:31 86° S 00:52:10 10° E visible
25 Jun 7.0 02:25:02 10° W 02:29:41 68° SSW 02:34:17 10° ESE visible
25 Jun 7.9 21:45:35 10° SSW 21:49:38 29° SSE 21:53:41 10° E visible
25 Jun 7.0 23:26:44 10° WSW 23:31:26 71° SSE 23:36:05 10° E visible
26 Jun 7.0 01:08:55 10° W 01:13:37 85° S 01:18:17 10° E visible
26 Jun 7.4 02:51:11 10° W 02:55:39 46° SSW 03:00:04 10° SE visible
26 Jun 7.3 22:10:57 10° SW 22:15:28 48° SSE 22:19:59 10° E visible
26 Jun 7.0 23:52:48 10° W 23:57:31 85° S 00:02:11 10° E visible
27 Jun 7.0 01:35:02 10° W 01:39:42 71° SSW 01:44:19 10° ESE visible
27 Jun 8.0 03:17:30 10° W 03:21:28 28° SW 03:25:23 10° SSE visible
27 Jun 8.0 20:55:41 10° SSW 20:59:41 27° SE 21:03:40 10° E visible
27 Jun 7.0 22:36:45 10° WSW 22:41:27 69° SSE 22:46:06 10° E visible
28 Jun 7.0 00:18:55 10° W 00:23:38 86° S 00:28:18 10° E visible
28 Jun 7.3 02:01:11 10° W 02:05:41 49° SSW 02:10:08 10° SE visible
28 Jun 7.4 21:20:59 10° SW 21:25:30 45° SSE 21:29:59 10° E visible
28 Jun 7.0 23:02:48 10° W 23:07:32 85° S 23:12:13 10° E visible
29 Jun 7.0 00:45:02 10° W 00:49:43 73° SSW 00:54:21 10° ESE visible
29 Jun 7.9 02:27:28 10° W 02:31:31 30° SSW 02:35:31 10° SSE visible
29 Jun 7.1 21:46:45 10° WSW 21:51:28 67° SSE 21:56:07 10° E visible
29 Jun 7.0 23:28:55 10° W 23:33:38 87° S 23:38:20 10° E visible
30 Jun 7.2 01:11:10 10° W 01:15:43 51° SSW 01:20:12 10° SE visible
30 Jun 8.6 02:54:17 10° W 02:57:11 16° SW 03:00:03 10° S visible
30 Jun 7.1 22:12:47 10° W 22:17:32 84° S 22:22:14 10° E visible
30 Jun 7.0 23:55:02 10° W 23:59:44 75° SSW 00:04:23 10° ESE visible
01 Jul 7.8 01:37:26 10° W 01:41:34 31° SSW 01:45:39 10° SSE visible
01 Jul 7.2 20:56:46 10° WSW 21:01:28 65° SSE 21:06:08 10° E visible
01 Jul 7.1 22:38:54 10° W 22:43:39 87° S 22:48:21 10° E visible
02 Jul 7.2 00:21:10 10° W 00:25:44 53° SSW 00:28:40 21° SE visible
02 Jul 8.7 02:04:09 10° W 02:06:09 16° WSW 02:06:09 16° WSW visible
02 Jul 7.1 21:22:47 10° WSW 21:27:33 82° S 21:32:15 10° E visible
02 Jul 7.0 23:05:02 10° W 23:09:45 76° SSW 23:14:04 12° ESE visible
03 Jul 7.7 00:47:24 10° W 00:51:36 33° SSW 00:51:38 33° SSW visible
03 Jul 7.1 21:48:53 10° W 21:53:39 87° S 21:58:22 10° E visible
03 Jul 7.2 23:31:08 10° W 23:35:46 56° SSW 23:37:44 31° SE visible
04 Jul 9.0 01:14:02 10° W 01:15:19 15° WSW 01:15:19 15° WSW visible
04 Jul 7.0 22:15:01 10° W 22:19:45 78° SSW 22:24:06 12° ESE visible
